weather.gov     
National Weather Service

Regional Weather Roundup
NWS Homepage
This page is being discontinued on March 12, 2014.
The same data is available at this site. Please update your bookmarks.
Thank you, and we apologize for the inconvenience.
Please send an email to SR-SRH.Webmaster@noaa.gov with any concerns.


Current Version
Previous Version:    01  02  03  04  05  06  07  08  09  10  11  12  13  14  15  16  17  18  19  20  21  22  23  24  25  26  27  28  29  30  
   31  32  33  34  35  36  37  38  39  40  41  42  43  44  45  46  47  48  49  50  51  52  53  54  
[Printable]
552
ASUS44 KOUN 311810
RWROK

WEATHER ROUNDUP FOR OKLAHOMA
NATIONAL WEATHER SERVICE NORMAN OK
100 PM CDT FRI OCT 31 2014

NOTE: "FAIR" INDICATES FEW OR NO CLOUDS BELOW 12,000 FEET WITH NO
      SIGNIFICANT WEATHER AND/OR OBSTRUCTIONS TO VISIBILITY.

OKZ001>007-009>012-014-015-017-311900-
NORTHWEST OKLAHOMA AND THE PANHANDLE

CITY           SKY/WX    TMP DP  RH WIND       PRES   REMARKS
GAGE           SUNNY     51  30  44 NE14      30.47F
6HR MIN TEMP:  36; 6HR MAX TEMP:  52;

ENID/WOODRING  SUNNY     52  30  43 N16G26    30.45S
$$

OKZ016-021>023-033>039-044-045-311900-
SOUTHWEST OKLAHOMA

CITY           SKY/WX    TMP DP  RH WIND       PRES   REMARKS
LAWTON/REGL    LGT RAIN  57  39  51 N12       30.44S
6HR MIN TEMP:  48; 6HR MAX TEMP:  57; 6HR PCP: TRACE;

LAWTON/FT SILL SUNNY     56  39  54 N18       30.41F
FREDERICK      LGT RAIN  59  37  44 N14       30.41F
CLINTON        SUNNY     53  33  46 N15G23    30.46F
HOBART         LGT RAIN  56  35  45 N20       30.45F
ALTUS AFB      SUNNY     58  37  45 NE14G21   30.44F
$$

OKZ018>020-024>031-311900-
CENTRAL OKLAHOMA

CITY           SKY/WX    TMP DP  RH WIND       PRES   REMARKS
OKLAHOMA CITY  MOSUNNY   58  35  42 N15G21    30.42S
6HR MIN TEMP:  46; 6HR MAX TEMP:  58;

OKC/WILEY POST SUNNY     56  33  42 NE15G22   30.43F
OKC/TINKER AFB SUNNY     57  34  43 N14       30.41S
STILLWATER     SUNNY     54  31  41 NE15G24   30.44F
GUTHRIE        SUNNY     54  34  46 N13G20    30.44S
$$

OKZ008-013-054>072-311900-
NORTHEAST OKLAHOMA

CITY           SKY/WX    TMP DP  RH WIND       PRES   REMARKS
TULSA          MOSUNNY   52  32  46 N15G23    30.42F
6HR MIN TEMP:  45; 6HR MAX TEMP:  52;

TULSA/JONES    LGT RAIN  52  31  44 N13G18    30.43F
PONCA CITY     SUNNY     50  25  37 N20G25    30.47F
BARTLESVILLE   SUNNY     48  27  44 N13G22    30.47F
MUSKOGEE       SUNNY     55  38  52 N18G28    30.39F
$$

OKZ032-040>043-046>053-073>077-311900-
SOUTH CENTRAL/SOUTHEAST OKLAHOMA

CITY           SKY/WX    TMP DP  RH WIND       PRES   REMARKS
ARDMORE/DWNTWN PTSUNNY   57  37  47 N6        30.39S
MCALESTER      LGT RAIN  56  40  55 N16G23    30.38S
$$





U.S. Dept. of Commerce
NOAA National Weather Service
1325 East West Highway
Silver Spring, MD 20910
E-mail: w-nws.webmaster@noaa.gov
Page last modified: May 16, 2007
NATIONAL WEATHER SERVICE: for Safety, for Work, for Fun - FOR LIFE